Home > Weather > Tromsø > Past weeks

Flag for Norway Past Weather in Tromsø, Norway — Yesterday and Last 2 Weeks

Now
49 °F

Sunny.


Feels Like: 48 °F
Forecast: 47 / 61 °F
Wind: 5 mph from West

Location: Tromso / Langnes

Current Time: May 26, 2016 at 8:37:37 PM

Latest Report: May 26, 2016 at 8:00 PM


Visibility: 25 mi

Pressure: 30.24 "Hg

Humidity: 69%

Dew Point: 40 °F

Location of TromsøLocation

Past Weather in Tromsø — Graph

°F

Tromsø Temperature Yesterday

Maximum temperature yesterday: 46 °F (at 5:00 PM)
Minimum temperature yesterday: 42 °F (at 2:00 AM)
Average temperature yesterday: 44 °F

High & Low Weather Summary for the Past Weeks

 TemperatureHumidityPressure
High62 °F (May 22, 4:00 PM)92% (May 17, 6:00 AM)30.34 "Hg (May 17, 6:00 AM)
Low35 °F (May 14, 3:00 AM)38% (May 13, 12:00 PM)29.35 "Hg (May 17, 4:00 AM)
Average44 °F70%29.80 "Hg
* Reported May 11 7:00 PM — May 26 7:00 PM, Tromsø, Weather by CustomWeather, © 2016

Note: Actual official high and low records may vary slightly from our data, if they occured in-between our weather recording intervals... More about our weather records

Advertising

Tromsø Weather History for the Previous 24 Hours

Scroll right to see more
 ConditionsComfort  
Time TempWeatherWind HumidityBarometerVisibility
7:00 PM
Thu, May 26
50 °FSunny.5 mph70%30.25 "Hg22 mi
6:00 PM50 °FSunny.5 mph68%30.25 "Hg19 mi
5:00 PM51 °FSunny.5 mph65%30.27 "Hg25 mi
4:00 PM51 °FSunny.5 mph65%30.27 "Hg19 mi
3:00 PM52 °FSunny.3 mph57%30.28 "Hg22 mi
2:00 PM52 °FSunny.3 mph53%30.28 "Hg19 mi
1:00 PM51 °FPassing clouds.3 mph54%30.28 "Hg28 mi
12:00 PM49 °FPartly sunny.5 mph57%30.29 "Hg25 mi
11:00 AM48 °FOvercast.3 mph61%30.30 "Hg22 mi
10:00 AM47 °FScattered clouds.5 mph66%30.30 "Hg25 mi
9:00 AM45 °FOvercast.5 mph77%30.31 "Hg31 mi
8:00 AM45 °FPassing clouds.3 mph70%30.31 "Hg25 mi
7:00 AM44 °FOvercast.2 mph79%30.31 "Hg25 mi
6:00 AM43 °FOvercast.2 mph81%30.32 "Hg31 mi
5:00 AM42 °FOvercast.2 mph86%30.32 "Hg28 mi
4:00 AM42 °FOvercast.2 mph85%30.33 "Hg28 mi
3:00 AM42 °FOvercast.1 mph82%30.33 "Hg31 mi
2:00 AM42 °FOvercast.2 mph80%30.33 "Hg31 mi
1:00 AM42 °FOvercast.1 mph78%30.34 "Hg31 mi
12:00 AM43 °FOvercast.1 mph84%30.34 "Hg25 mi
11:00 PM
Wed, May 25
43 °FOvercast.2 mph84%30.33 "Hg25 mi
10:00 PM43 °FOvercast.2 mph82%30.33 "Hg25 mi
9:00 PM43 °FOvercast.3 mph85%30.33 "Hg22 mi
8:00 PM43 °FOvercast.6 mph85%30.32 "Hg22 mi
Weather by CustomWeather, © 2016

See weather overviewHow to use our weather pages